Chipley, FL

3:10 AM CDT on June 29, 2017 (GMT -0500)
Chipley

Weather History for KVSH - January, 2013

Change the Weather History Date:

Thursday, January 10, 2013

  Actual Average (KDHN) Record (KDHN)
Temperature  
Mean Temperature 66 °F -  
Max Temperature 69 °F 58 °F 80 °F (1949)
Min Temperature 64 °F 40 °F -47 °F (2001)
Cooling Degree Days 2    
Growing Degree Days 16 (Base 50)    
Moisture  
Dew Point 65 °F    
Average Humidity 93    
Maximum Humidity 94    
Minimum Humidity 88    
Precipitation  
Precipitation 1.44 in - - ()
Sea Level Pressure  
Sea Level Pressure 30.10 in    
Wind  
Wind Speed 7 mph (SE)    
Max Wind Speed 14 mph    
Max Gust Speed 23 mph    
Visibility 6 miles    
Events      
Averages and records for this station are not official NWS values.
T = Trace of Precipitation, MM = Missing Value Source: NWS Daily Summary

Daily Weather History Graph

Daily Weather History Graph

Search for Another Location

Airport or City:

Trip Planner

Search our weather history database for the weather conditions in past years. The results will help you decide how hot, cold, wet, or windy it might be!

Date:

Astronomy

Jan. 10, 2013 Rise Set
Actual Time 6:41 AM CST 4:59 PM CST
Civil Twilight 6:14 AM CST 5:25 PM CST
Nautical Twilight 5:45 AM CST 5:55 PM CST
Astronomical Twilight 5:15 AM CST 6:24 PM CST
Moon 5:20 AM CST (1/10) 4:05 PM CST (1/10)
Length of Visible Light 11h 10m
Length of Day
10h 18m
Waning Crescent, 2% of the Moon is Illuminated
Jan 10
Waning Crescent
Jan 11
New
Jan 18
First Quarter
Jan 26
Full
Feb 3
Last Quarter

Hourly Weather History & Observations

Time (CST) Temp. Dew Point Humidity Pressure Visibility Wind Dir Wind Speed Gust Speed Precip Events Conditions
12:15 AM 69.8 °F 68.0 °F 94% 30.15 in 4.0 mi ESE 9.2 mph 16.1 mph N/A   Overcast
12:35 AM 69.8 °F 68.0 °F 94% 30.17 in 7.0 mi SE 8.1 mph - N/A   Overcast
12:55 AM 69.8 °F 68.0 °F 94% 30.16 in 6.0 mi SE 11.5 mph 20.7 mph N/A   Overcast
1:15 AM 69.8 °F 68.0 °F 94% 30.15 in 5.0 mi SE 6.9 mph 16.1 mph N/A   Overcast
1:35 AM 69.8 °F 68.0 °F 94% 30.16 in 5.0 mi ESE 8.1 mph 18.4 mph N/A   Overcast
1:55 AM 69.8 °F 68.0 °F 94% 30.15 in 6.0 mi SE 8.1 mph 16.1 mph N/A   Overcast
2:15 AM 69.8 °F 68.0 °F 94% 30.15 in 5.0 mi SE 8.1 mph - N/A   Overcast
2:35 AM 69.8 °F 68.0 °F 94% 30.13 in 5.0 mi SE 10.4 mph 16.1 mph N/A   Overcast
2:55 AM 69.8 °F 68.0 °F 94% 30.12 in 5.0 mi SE 11.5 mph 20.7 mph N/A   Overcast
3:15 AM 69.8 °F 68.0 °F 94% 30.11 in 5.0 mi ESE 5.8 mph - N/A   Overcast
3:35 AM 69.8 °F 68.0 °F 94% 30.10 in 5.0 mi SE 6.9 mph - N/A   Overcast
3:55 AM 69.8 °F 68.0 °F 94% 30.09 in 5.0 mi ESE 5.8 mph - N/A   Overcast
4:15 AM 69.8 °F 68.0 °F 94% 30.09 in 6.0 mi East 4.6 mph - N/A   Overcast
4:35 AM 69.8 °F 68.0 °F 94% 30.08 in 6.0 mi East 4.6 mph - N/A   Overcast
4:55 AM 69.8 °F 68.0 °F 94% 30.08 in 4.0 mi SE 5.8 mph - N/A   Overcast
5:15 AM 69.8 °F 68.0 °F 94% 30.09 in 1.2 mi Calm Calm - N/A   Overcast
5:35 AM 68.0 °F 66.2 °F 94% 30.09 in 0.8 mi ESE 9.2 mph - N/A   Overcast
6:15 AM 68.0 °F 66.2 °F 94% 30.09 in 1.2 mi SE 11.5 mph 17.3 mph N/A   Overcast
6:35 AM 68.0 °F 66.2 °F 94% 30.10 in 1.5 mi East 5.8 mph 17.3 mph N/A   Overcast
6:55 AM 68.0 °F 66.2 °F 94% 30.09 in 5.0 mi ESE 9.2 mph - N/A   Overcast
7:15 AM 68.0 °F 66.2 °F 94% 30.09 in 3.0 mi SE 9.2 mph 18.4 mph N/A   Overcast
7:35 AM 68.0 °F 66.2 °F 94% 30.11 in 5.0 mi ESE 4.6 mph - N/A   Overcast
7:55 AM 68.0 °F 66.2 °F 94% 30.13 in 4.0 mi East 4.6 mph - N/A   Overcast
8:35 AM 68.0 °F 66.2 °F 94% 30.12 in 5.0 mi SE 9.2 mph 16.1 mph N/A   Overcast
8:55 AM 68.0 °F 66.2 °F 94% 30.12 in 1.2 mi SE 13.8 mph 23.0 mph N/A   Overcast
9:15 AM 68.0 °F 66.2 °F 94% 30.15 in 3.0 mi SSE 6.9 mph - N/A   Overcast
9:55 AM 68.0 °F 66.2 °F 94% 30.18 in 5.0 mi SSE 4.6 mph - N/A   Overcast
10:15 AM 68.0 °F 66.2 °F 94% 30.18 in 4.0 mi South 3.5 mph - N/A   Overcast
10:35 AM 69.8 °F 66.2 °F 88% 30.18 in 5.0 mi SE 3.5 mph - 0.01 in   Overcast
10:55 AM 69.8 °F 66.2 °F 88% 30.17 in 4.0 mi SSE 4.6 mph - 0.01 in   Overcast
11:15 AM 69.8 °F 66.2 °F 88% 30.15 in 4.0 mi East 5.8 mph - 0.01 in   Overcast
11:35 AM 69.8 °F 66.2 °F 88% 30.15 in 3.0 mi North 3.5 mph - 0.05 in   Overcast
11:55 AM 66.2 °F 64.4 °F 94% 30.16 in 1.5 mi NNW 4.6 mph - 0.45 in   Overcast
12:15 PM 64.4 °F 62.6 °F 94% 30.11 in 7.0 mi NNE 5.8 mph - 0.12 in   Mostly Cloudy
12:35 PM 64.4 °F 62.6 °F 94% 30.12 in 10.0 mi NNE 8.1 mph - 0.19 in   Overcast
12:55 PM 64.4 °F 62.6 °F 94% 30.12 in 5.0 mi NE 8.1 mph - 0.28 in   Overcast
1:35 PM 64.4 °F 62.6 °F 94% 30.14 in 5.0 mi NE 4.6 mph - 0.20 in   Mostly Cloudy
1:55 PM 64.4 °F 62.6 °F 94% 30.12 in 7.0 mi ENE 8.1 mph - 0.29 in   Overcast
2:15 PM 64.4 °F 62.6 °F 94% 30.12 in 7.0 mi ENE 6.9 mph - 0.09 in   Overcast
2:35 PM 64.4 °F 62.6 °F 94% 30.11 in 6.0 mi East 6.9 mph - 0.19 in   Overcast
2:55 PM 64.4 °F 62.6 °F 94% 30.11 in 6.0 mi East 6.9 mph - 0.25 in   Overcast
3:15 PM 64.4 °F 62.6 °F 94% 30.08 in 7.0 mi East 10.4 mph - 0.07 in   Overcast
3:35 PM 64.4 °F 62.6 °F 94% 30.09 in 10.0 mi East 11.5 mph - 0.11 in   Overcast
3:55 PM 64.4 °F 62.6 °F 94% 30.06 in 10.0 mi East 8.1 mph - 0.13 in   Overcast
4:15 PM 64.4 °F 62.6 °F 94% 30.02 in 10.0 mi ESE 6.9 mph 16.1 mph 0.02 in   Mostly Cloudy
4:35 PM 64.4 °F 62.6 °F 94% 30.01 in 10.0 mi SSE 10.4 mph 19.6 mph 0.02 in   Mostly Cloudy
4:55 PM 64.4 °F 62.6 °F 94% 30.04 in 10.0 mi South 6.9 mph - 0.03 in   Overcast
5:15 PM 64.4 °F 62.6 °F 94% 30.03 in 10.0 mi SSE 3.5 mph - N/A   Scattered Clouds
5:35 PM 64.4 °F 62.6 °F 94% 30.01 in 10.0 mi SE 6.9 mph - N/A   Scattered Clouds
5:55 PM 64.4 °F 60.8 °F 88% 30.04 in 10.0 mi West 10.4 mph 18.4 mph N/A   Scattered Clouds
6:15 PM 64.4 °F 62.6 °F 94% 30.03 in 10.0 mi South 4.6 mph - N/A   Partly Cloudy
6:35 PM 66.2 °F 62.6 °F 88% 30.02 in 10.0 mi South 8.1 mph - N/A   Clear
6:55 PM 64.4 °F 62.6 °F 94% 30.05 in 10.0 mi South 5.8 mph - N/A   Clear
7:15 PM 64.4 °F 62.6 °F 94% 30.03 in 10.0 mi SE 5.8 mph - N/A   Clear
7:35 PM 64.4 °F 62.6 °F 94% 30.06 in 10.0 mi South 4.6 mph - N/A   Clear
7:55 PM 64.4 °F 60.8 °F 88% 30.05 in 10.0 mi Calm Calm - N/A   Clear
8:15 PM 64.4 °F 60.8 °F 88% 30.07 in 10.0 mi South 6.9 mph - N/A   Clear
8:35 PM 64.4 °F 60.8 °F 88% 30.06 in 10.0 mi South 3.5 mph - N/A   Clear
9:15 PM 64.4 °F 62.6 °F 94% 30.10 in 10.0 mi Calm Calm - N/A   Mostly Cloudy
9:35 PM 64.4 °F 62.6 °F 94% 30.11 in 10.0 mi South 6.9 mph - N/A   Overcast
9:55 PM 64.4 °F 62.6 °F 94% 30.11 in 10.0 mi South 9.2 mph - N/A   Overcast
10:15 PM 64.4 °F 62.6 °F 94% 30.10 in 10.0 mi South 8.1 mph - N/A   Overcast
10:35 PM 64.4 °F 62.6 °F 94% 30.10 in 9.0 mi South 5.8 mph - N/A   Overcast
10:55 PM 64.4 °F 62.6 °F 94% 30.10 in 8.0 mi South 10.4 mph - N/A   Overcast
11:15 PM 64.4 °F 62.6 °F 94% 30.10 in 8.0 mi South 8.1 mph - N/A   Overcast
11:35 PM 64.4 °F 62.6 °F 94% 30.10 in 7.0 mi South 10.4 mph - N/A   Overcast
11:55 PM 64.4 °F 62.6 °F 94% 30.10 in 7.0 mi South 10.4 mph - N/A   Overcast